weather.gov     
National Weather Service

Regional Weather Roundup
NWS Homepage
This page is being discontinued on March 12, 2014.
The same data is available at this site. Please update your bookmarks.
Thank you, and we apologize for the inconvenience.
Please send an email to SR-SRH.Webmaster@noaa.gov with any concerns.


Current Version
Previous Version:    01  02  03  04  05  06  07  08  09  10  11  12  13  14  15  16  17  18  19  20  21  22  23  24  25  26  
[Printable]
713
ASUS41 KBGM 280410
RWRBGM
RWRBGM
BINGHAMTON REGIONAL WEATHER ROUNDUP
NATIONAL WEATHER SERVICE BINGHAMTON NY
1200 AM EDT THU AUG 28 2014

Note: "fair" indicates few or no clouds below 12,000 feet with no
significant weather and/or obstructions to visibility.

* = Station(s) that does not report precipitation, such as rain,
snow, etc, also no thunder or fog.

!NYZ009-015>018-022>025-036-037-044>046-055>057-062-280500
...CENTRAL NEW YORK...

CITY           SKY/WX    TMP DP  RH WIND       PRES   REMARKS
BINGHAMTON     CLEAR     61  55  81 N6        30.03S
CORTLAND       FAIR      55  55 100 W3        30.05S
DANSVILLE      MOCLDY    61  57  87 CALM      30.06S
ELMIRA         MOCLDY    59  57  93 N3        30.04R
ITHACA         CLEAR     58  56  93 NW5       30.05S
HAMILTON       PTCLDY    57  55  94 CALM      30.02S
MONTICELLO     CLOUDY    68  61  77 NW7       29.99S
NORWICH        CLEAR     57  55  94 CALM      30.02F
ONEONTA        CLEAR     57  52  82 CALM      30.02F
PENN YAN       CLOUDY    62  56  80 W3        30.05S
ROME           CLOUDY    62  59  90 NW3       30.00S
SIDNEY         PTCLDY    61  57  88 CALM      30.02F
SYRACUSE       PTCLDY    64  59  83 W8        30.00S
$$

!PAZ038>040-043-044-047-048-072-280500
...NORTHEAST PENNSYLVANIA...

CITY           SKY/WX    TMP DP  RH WIND       PRES   REMARKS
HAZLETON       LGT RAIN  70  68  94 N8        30.03R
SCRANTON       CLOUDY    73  63  70 N8        29.98S
TOWANDA*       PTCLDY    66  57  72 NE7       30.03S
$$
&&
KEY
WCI = WIND CHILL INDEX
VSB = VISIBILITY
HX  = HEAT INDEX
$$




U.S. Dept. of Commerce
NOAA National Weather Service
1325 East West Highway
Silver Spring, MD 20910
E-mail: w-nws.webmaster@noaa.gov
Page last modified: May 16, 2007
NATIONAL WEATHER SERVICE: for Safety, for Work, for Fun - FOR LIFE